Simultaneous Nadir Overpasses (SNOs) Predictions

Prediction of SNOs between METOP-A and NOAA-19 Satellite Orbit:

Table of predicted SNOs for the next 14.0 days since TLE Epoch: 4/30/2014
Index Date (METOP-A) Time (METOP-A) Lat,Lon (METOP-A) SZA (METOP-A ) Date (NOAA-19) Time (NOAA-19) Lat,Lon (NOAA-19) SZA (NOAA-19 ) Distance(km) Time Diff (sec)
1 05/08/2014 12:21:44 74.31, -10.27 57.12 05/08/2014 12:20:33 74.34, -11.67 57.20 42.16 71
2 05/08/2014 13:12:31 -74.05, 156.39 123.14 05/08/2014 13:11:25 -74.02, 156.43 123.16 2.76 66
3 05/08/2014 14:03:11 74.04, -36.28 56.85 05/08/2014 14:02:30 74.02, -36.34 56.83 3.12 41
4 05/08/2014 14:53:54 -73.98, 130.89 123.23 05/08/2014 14:53:28 -73.99, 131.00 123.21 3.61 26
5 05/08/2014 15:44:34 73.98, -61.79 56.77 05/08/2014 15:44:33 73.99, -61.77 56.78 1.46 1
6 05/08/2014 16:35:16 -73.96, 105.50 123.26 05/08/2014 16:35:31 -73.96, 105.57 123.27 2.02 15
7 05/08/2014 17:25:56 73.96, -87.17 56.73 05/08/2014 17:26:36 73.95, -87.20 56.72 0.79 40
8 05/08/2014 18:16:38 -73.94, 80.11 123.30 05/08/2014 18:17:34 -73.92, 80.14 123.32 1.95 56
9 05/08/2014 19:07:23 73.69,-113.15 56.46 05/08/2014 19:08:35 73.73,-112.14 56.46 31.76 72




NCC Satellite Simultaneous Nadir Overpasses (SNOs) Prediction Service
